www.pogodaiklimat.ru

Погода и климат >> Архив погоды >> Беларусь >> Минск


АРХИВ ПОГОДЫ в Минске

Время (UTC), дата Ветер
(напр.,м/с)
 
Видим.   Явления Облачность Т
(С)
Тd
(С)
f
(%)
Тe
(С)
Тes
(С)
Комфортность P
(гПа)
Po
(гПа)
Тmin
(С)
Tmax
(С)
R
(мм)
R24
(мм)
S
(см)
12 12.12 С 2 10 км 10/10 300 м
[Sc]
+0.5 +0.1 97 -3 -3 по сезону 1018.7 989.9
15 12.12 СВ 2 15 км 10/10 360 м
[Sc]
+0.8 -0.6 90 -3 -3 по сезону 1019.5 990.7
18 12.12 СВ 3 30 км 10/10 400 м
[Sc]
+0.8 +0.4 97 -4 -4 по сезону 1020.0 991.2 +0.9
21 12.12 С 4 26 км слабый снег 10/10 400 м
[Sc]
+0.2 -0.9 92 -5 -5 по сезону 1019.9 991.1
00 13.12 С 3 22 км {снег} 10/10 420 м
[Sc]
-0.3 -1.8 90 -5 -5 по сезону 1019.7 990.9
03 13.12 СВ 4 30 км {снег} 10/10 360 м
[Sc]
-0.4 -2.2 88 -6 -6 по сезону 1019.6 990.8
06 13.12 СВ 4 30 км {снег} 10/10 420 м
[Sc]
-0.7 -2.2 90 -6 -6 по сезону 1019.6 990.8 -0.7 0.3 1
09 13.12 СВ 3 30 км {снег} 10/10 420 м
[Sc]
-0.6 -3.1 83 -5 -5 по сезону 1020.3 991.4
12 13.12 СВ 3 30 км {снег} 10/10 400 м
[Sc]
-0.4 -2.8 84 -5 -5 по сезону 1020.0 991.1
15 13.12 СВ 3 8000 м слабый снег 10/10 300 м
[Sc]
-0.7 -2.1 90 -6 -6 по сезону 1020.8 991.8
18 13.12 СВ 3 10 км слабый снег 10/10 300 м
[Sc]
-0.5 -2.1 89 -5 -5 по сезону 1021.3 992.3 -0.4 0.2
21 13.12 СВ 2 8000 м слабый снег 10/10 270 м
[Sc]
-0.8 -2.1 91 -5 -5 по сезону 1022.3 993.3
00 14.12 СВ 3 8000 м слабый снег 10/10 270 м
[Sc]
-0.8 -1.9 92 -6 -6 по сезону 1023.1 994.1
03 14.12 В 3 10 км {снег} 10/10 240 м
[Sc]
-0.8 -1.4 96 -6 -6 по сезону 1024.0 994.9
06 14.12 СВ 2 5000 м дымка {снег} 10/10 270 м
[Sc]
-0.8 -1.4 96 -5 -5 по сезону 1025.1 996.0 -0.9 0.3 2
09 14.12 СВ 2 4400 м слабый снег 10/10 210 м
[Sc]
-0.7 -1.3 96 -5 -5 по сезону 1026.6 997.5
12 14.12 СВ 2 14 км слабый снег 10/10 330 м
[Sc]
-0.5 -1.6 92 -4 -4 по сезону 1027.1 998.0
15 14.12 СВ 1 20 км {снег} 10/10 300 м
[Sc]
-0.9 -2.3 90 -3 -3 по сезону 1028.2 999.0
18 14.12 В 2 18 км {снег} 10/10 330 м
[Sc]
-1.0 -2.6 89 -5 -5 по сезону 1029.3 1000.1 -0.4 0.4
21 14.12 СВ 2 16 км слабый снег 10/10 270 м
[Sc]
-1.3 -2.6 91 -5 -5 по сезону 1030.2 1000.9
00 15.12 СВ 2 11 км слабый снег 10/10 240 м
[Sc]
-1.6 -2.7 92 -6 -6 по сезону 1030.5 1001.2
03 15.12 СВ 2 17 км {снег} 10/10 300 м
[Sc]
-1.8 -3.1 91 -6 -6 по сезону 1031.1 1001.7
06 15.12 СВ 2 18 км {снег} 10/10 420 м
[Sc]
-1.9 -3.2 91 -6 -6 по сезону 1032.0 1002.6 -1.9 0.4 4
09 15.12 В 2 23 км 10/10 450 м
[Frnb]
-1.6 -4.1 83 -5 -5 по сезону 1033.0 1003.6
12 15.12 СВ 2 25 км 10/10 400 м
[Frnb]
-1.3 -3.5 85 -5 -5 по сезону 1033.0 1003.6
15 15.12 В 2 28 км 10/10 420 м
[St]
-1.8 -3.2 90 -6 -6 по сезону 1033.6 1004.1
18 15.12 В 3 24 км 10/10 360 м
[St]
-2.0 -3.4 90 -7 -7 по сезону 1033.5 1004.0 -1.2
21 15.12 В 3 23 км 10/10 330 м
[St]
-2.8 -3.9 92 -8 -8 по сезону 1033.8 1004.2
00 16.12 В 3 25 км 10/10 360 м
[St]
-2.9 -4.3 90 -8 -8 по сезону 1033.2 1003.6
03 16.12 В 3 23 км 10/10 360 м
[St]
-2.7 -3.8 92 -8 -8 по сезону 1032.4 1002.9
06 16.12 ЮВ 3 18 км 10/10 330 м
[Sc]
-2.3 -3.3 93 -8 -8 по сезону 1031.5 1002.1 -3.2 4
09 16.12 ЮВ 4 16 км 10/10 270 м
[Sc]
-2.3 -3.3 93 -8 -8 по сезону 1031.5 1002.1
12 16.12 ЮВ 4
{10}
35 км 10/10 330 м
[Sc]
-2.0 -3.6 89 -8 -8 по сезону 1030.4 1001.0
15 16.12 ЮВ 4
{11}
18 км 10/10 360 м
[Sc]
-2.7 -4.0 91 -9 -9 по сезону 1029.4 1000.0
18 16.12 ЮВ 4
{10}
16 км 10/10 360 м
[Sc]
-3.5 -4.9 90 -10 -10 по сезону 1029.0 999.5 -2.0
21 16.12 ЮВ 4
{10}
10 км 10/10 660 м
[Sc]
-3.5 -4.5 93 -10 -10 по сезону 1029.0 999.5
00 17.12 ЮВ 4 8000 м дымка 10/10 400 м
[Sc]
-3.8 -4.5 95 -10 -10 по сезону 1028.5 999.0
03 17.12 ЮВ 4 10 км 10/10 300 м
[Sc]
-4.3 -5.1 94 -11 -11 прохладно 1028.2 998.6
06 17.12 ЮВ 4 10 км слабый снег 10/10 210 м
[Sc]
-4.6 -5.6 93 -11 -11 прохладно 1028.2 998.6 -4.6 0.0 4
09 17.12 ЮВ 4 10 км {ливн. осадки, снег} 10/10 300 м
[Sc]
-4.9 -5.7 94 -11 -11 прохладно 1028.3 998.7
12 17.12 Ю 3 15 км {ливн. осадки, снег} 10/10 330 м
[Sc]
-4.9 -6.1 91 -10 -10 прохладно 1027.9 998.3
15 17.12 ЮВ 2 12 км 10/10 330 м
[Sc]
-4.5 -6.0 89 -9 -9 по сезону 1028.1 998.5
18 17.12 ЮВ 3 15 км 10/10 360 м
[Sc]
-4.3 -6.4 85 -10 -10 по сезону 1028.6 999.0 -4.3 0.0
21 17.12 ЮВ 2 20 км 10/10 360 м
[Sc]
-5.0 -7.0 86 -9 -9 по сезону 1029.7 1000.0
00 18.12 ЮВ 2 18 км 10/10 300 м
[Sc]
-5.5 -7.0 89 -10 -10 по сезону 1029.9 1000.1
03 18.12 Ю 2 20 км 10/10 300 м
[Sc]
-5.9 -7.3 90 -10 -10 по сезону 1030.1 1000.3
06 18.12 ЮВ 2 3200 м слабый снег 10/10 240 м
[Sc]
-5.9 -7.3 90 -10 -10 по сезону 1030.6 1000.8 -5.9 0.3 4
09 18.12 Ю 2 5000 м слабый снег 10/8 210 м
[Sc As op]
-5.4 -7.2 87 -10 -10 по сезону 1031.6 1001.8
12 18.12 Ю 1 16 км {снег} 10/10 360 м
[Sc]
-5.0 -7.1 85 -7 -7 по сезону 1031.2 1001.5
15 18.12 ЮВ 1 13 км 10/10 1380 м
[Sc]
-5.0 -6.7 88 -7 -7 по сезону 1032.1 1002.3
18 18.12 Ю 2 10 км 10/10 270 м
[Sc]
-5.2 -6.4 91 -10 -10 по сезону 1032.4 1002.6 -4.9 3
21 18.12 Ю 1 10 км 10/10 330 м
[Sc]
-5.2 -6.4 91 -8 -8 по сезону 1033.5 1003.7
00 19.12 Ю 1 10 км 10/10 240 м
[Sc]
-5.2 -6.3 92 -8 -8 по сезону 1033.2 1003.4
03 19.12 ЮВ 1 6000 м дымка 10/10 300 м
[Sc]
-5.2 -6.3 92 -8 -8 по сезону 1033.3 1003.5
06 19.12 ЮВ 1 6000 м дымка 10/10 360 м
[Sc]
-5.1 -6.2 92 -8 -8 по сезону 1033.5 1003.7 -5.2 6

 

Местоположение метеостанции Минск (город Минск, Беларусь): широта 53.93 долгота 27.63 высота над уровнем моря 231 м.

В архиве по умолчанию представлена погода в Минске за последнюю неделю. Архивные данные за месяц целиком и за предыдущие месяцы, начиная с января 2011 года, Вы можете получить, выбрав интересующий диапазон дат из раскрывающегося списка и нажав кнопку "Ввод!".


*Определитесь, кто Вы:
робот инопланетянин человек

Внимание! Время в таблицах - всемирное. Для получения местного времени необходимо прибавить поправку, которая в Минске равна 3 ч.

Смотрите также архив погоды в соседних городах и на ближайших метеорологических станциях:

Погода в Марьиной Горке (Минская область, Беларусь) (63 км)
Погода в Борисове (Минская область, Беларусь) (68 км)
Погода в Воложине (Минская область, Беларусь) (75 км)
Погода в Вилейке (Минская область, Беларусь) (77 км)
Погода в Столбцах (Минская область, Беларусь) (78 км)
Погода в Березино (Минская область, Беларусь) (90 км)
Погода в Слуцке (Минская область, Беларусь) (100 км)
Погода в Березинском Заповеднике (Минская область, Беларусь) (100 км)
Погода в Докшицах (Витебская область, Беларусь) (106 км)
Погода в Кличеве (Могилевская область, Беларусь) (121 км)

Пояснения к столбцам:

Ветер - указаны скорость ветра в м/с - средняя за 10 мин, порывы в срок и между сроками (в фигурных скобках) и направление, откуда дует ветер: С - северный, СВ - северо-восточный, В - восточный, ЮВ - юго-восточный, Ю - южный, ЮЗ - юго-западный, З - западный, СЗ - северо-западный.
Видимость - горизонтальная дальность видимости в метрах или километрах. При видимости от 1 до 10 км при отсутствии осадков обычно наблюдается дымка, при ухудшении видимости до 1 км и менее - туман. В сухую погоду видимость может ухудшаться дымом, пылью или мглою.
Явления - указаны атмосферные явления, наблюдавшиеся в срок или в последний час перед сроком; фигурными скобками обозначены явления, наблюдавшиеся между сроками (за 1-3 часа до срока); квадратными скобками обозначены град или гололедные отложения с указанием их диаметра в мм.
Облачность - указаны через наклонную черту общая и нижняя облачность в баллах и высота нижней границы облаков в метрах; квадратными скобками обозначены формы облаков: Ci - перистые, Cs - перисто-слоистые, Cc - перисто-кучевые, Ac - высококучевые, As - высокослоистые, Sc - слоисто-кучевые, Ns - слоисто-дождевые, Cu - кучевые, Cb - кучево-дождевые. Подробнее классификацию облаков см. в Атласе облаков (PDF).
T - Температура воздуха - температура, измеренная на высоте 2 м над землей.
Td - Температура точки росы - температура, при понижении до которой содержащийся в воздухе водяной пар достигнет насыщения.
f - Относительная влажность воздуха - влажноcть воздуха, измеренная на высоте 2 м над землей.
Te - Эффективная температура - температура, которую ощущает одетый по сезону человек в тени. Характеристика душности погоды. При расчете учитывается влияние влажности воздуха и скорости ветра на теплоощущения человека.
Tes - Эффективная температура на солнце - температура, которую ощущает человек, с поправкой на солнечный нагрев. Характеристика знойности погоды. Зависит от высоты солнца над горизонтом, облачности и скорости ветра. Ночью, в пасмурную погоду, а также при ветре 12 м/с и более поправка равна нулю.
P - Атмосферное давление - приведенное к уровню моря атмосферное давление.
Po - Атмосферное давление - измеренное на уровне метеостанции атмосферное давление.
Tmin - Минимальная температура - минимум температуры воздуха на высоте 2 м над землей.
Tmax - Максимальная температура - максимум температуры воздуха на высоте 2 м над землей.
R - Количество осадков - Количество выпавших осадков за период времени, мм. При наведении курсора мыши на число - период времени, за который выпало указанное количество осадков.
R24 - Количество осадков - Количество выпавших осадков за 24 часа, мм.
S - Снежный покров - Высота снежного покрова, см. При наведении курсора мыши на число - состояние снежного покрова и степень покрытия местности в баллах.